Time,TemperatureF,DewpointF,PressureIn,WindDirection,WindDirectionDegrees,WindSpeedMPH,WindSpeedGustMPH,Humidity,HourlyPrecipIn,Conditions,Clouds,dailyrainin,SoftwareType,DateUTC
2013-05-29 00:01:00,53.0,50.0,29.73,NNE,24,0.0,-999.0,91,-99.99,,,-99.99,,2013-05-29 07:01:00,
2013-05-29 00:11:00,53.0,50.0,29.73,NNE,24,0.0,-999.0,91,-99.99,,,-99.99,,2013-05-29 07:11:00,
2013-05-29 00:21:00,53.0,50.0,29.73,NNE,24,0.0,-999.0,91,-99.99,,,-99.99,,2013-05-29 07:21:00,
2013-05-29 00:32:00,53.0,50.0,29.72,NNE,24,0.0,-999.0,91,-99.99,,,-99.99,,2013-05-29 07:32:00,
2013-05-29 00:42:00,53.0,50.0,29.72,NNE,24,0.0,-999.0,91,-99.99,,,-99.99,,2013-05-29 07:42:00,
2013-05-29 00:52:00,53.0,51.0,29.72,NNE,24,0.0,-999.0,92,-99.99,,,-99.99,,2013-05-29 07:52:00,
2013-05-29 01:02:00,53.0,51.0,29.71,ENE,63,0.0,-999.0,93,-99.99,,,-99.99,,2013-05-29 08:02:00,
2013-05-29 01:11:00,53.0,51.0,29.71,ENE,63,0.0,-999.0,93,-99.99,,,-99.99,,2013-05-29 08:11:00,
2013-05-29 01:21:00,52.0,50.0,29.70,East,89,0.0,-999.0,93,-99.99,,,-99.99,,2013-05-29 08:21:00,
2013-05-29 01:31:00,52.0,50.0,29.70,South,178,0.0,-999.0,93,-99.99,,,-99.99,,2013-05-29 08:31:00,
2013-05-29 01:41:00,52.0,50.0,29.70,South,178,0.0,-999.0,93,-99.99,,,-99.99,,2013-05-29 08:41:00,
2013-05-29 01:52:00,52.0,50.0,29.68,East,101,1.0,-999.0,94,-99.99,,,-99.99,,2013-05-29 08:52:00,
2013-05-29 02:01:00,52.0,50.0,29.68,ENE,78,1.0,-999.0,94,-99.99,,,-99.99,,2013-05-29 09:01:00,
2013-05-29 02:11:00,52.0,50.0,29.68,ENE,78,1.0,-999.0,94,-99.99,,,-99.99,,2013-05-29 09:11:00,
2013-05-29 02:21:00,52.0,50.0,29.67,East,86,1.0,-999.0,94,-99.99,,,-99.99,,2013-05-29 09:21:00,
2013-05-29 02:32:00,52.0,51.0,29.66,East,98,0.0,-999.0,95,-99.99,,,-99.99,,2013-05-29 09:32:00,
2013-05-29 02:42:00,52.0,51.0,29.66,East,98,0.0,-999.0,95,-99.99,,,-99.99,,2013-05-29 09:42:00,
2013-05-29 02:52:00,52.0,51.0,29.65,SSE,159,0.0,-999.0,95,-99.99,,,-99.99,,2013-05-29 09:52:00,
2013-05-29 03:02:00,52.0,51.0,29.65,SSE,150,1.0,-999.0,95,-99.99,,,-99.99,,2013-05-29 10:02:00,
2013-05-29 03:12:00,52.0,51.0,29.65,SSE,150,1.0,-999.0,95,-99.99,,,-99.99,,2013-05-29 10:12:00,
2013-05-29 03:22:00,52.0,51.0,29.64,NE,39,1.0,-999.0,96,-99.99,,,-99.99,,2013-05-29 10:22:00,
2013-05-29 03:32:00,52.0,51.0,29.64,South,179,0.0,-999.0,96,-99.99,,,-99.99,,2013-05-29 10:32:00,
2013-05-29 03:42:00,52.0,51.0,29.64,South,179,0.0,-999.0,96,-99.99,,,-99.99,,2013-05-29 10:42:00,
2013-05-29 03:53:00,52.0,51.0,29.64,NW,307,0.0,-999.0,96,-99.99,,,-99.99,,2013-05-29 10:53:00,
2013-05-29 04:02:00,52.0,51.0,29.63,North,5,2.0,-999.0,96,-99.99,,,-99.99,,2013-05-29 11:02:00,
2013-05-29 04:11:00,52.0,51.0,29.63,North,5,2.0,-999.0,96,-99.99,,,-99.99,,2013-05-29 11:11:00,
2013-05-29 04:21:00,53.0,52.0,29.63,SSE,150,2.0,-999.0,96,-99.99,,,-99.99,,2013-05-29 11:21:00,
2013-05-29 04:32:00,53.0,52.0,29.63,ENE,57,2.0,-999.0,96,-99.99,,,-99.99,,2013-05-29 11:32:00,
2013-05-29 04:41:00,53.0,52.0,29.63,ENE,57,2.0,-999.0,96,-99.99,,,-99.99,,2013-05-29 11:41:00,
2013-05-29 04:52:00,53.0,52.0,29.63,SSE,148,3.0,-999.0,96,-99.99,,,-99.99,,2013-05-29 11:52:00,
2013-05-29 05:01:00,53.0,52.0,29.63,SSE,162,4.0,-999.0,96,-99.99,,,-99.99,,2013-05-29 12:01:00,
2013-05-29 05:11:00,53.0,52.0,29.63,SSE,162,4.0,-999.0,96,-99.99,,,-99.99,,2013-05-29 12:11:00,
2013-05-29 05:21:00,53.0,52.0,29.63,SSE,162,3.0,-999.0,96,-99.99,,,-99.99,,2013-05-29 12:21:00,
2013-05-29 05:31:00,53.0,52.0,29.63,South,180,5.0,-999.0,96,-99.99,,,-99.99,,2013-05-29 12:31:00,
2013-05-29 05:41:00,53.0,52.0,29.63,South,180,5.0,-999.0,96,-99.99,,,-99.99,,2013-05-29 12:41:00,
2013-05-29 05:52:00,53.0,52.0,29.64,South,184,4.0,-999.0,96,-99.99,,,-99.99,,2013-05-29 12:52:00,
2013-05-29 06:01:00,54.0,53.0,29.64,South,169,4.0,-999.0,96,-99.99,,,-99.99,,2013-05-29 13:01:00,
2013-05-29 06:11:00,54.0,53.0,29.64,South,169,4.0,-999.0,96,-99.99,,,-99.99,,2013-05-29 13:11:00,
2013-05-29 06:21:00,54.0,53.0,29.65,South,169,4.0,-999.0,95,-99.99,,,-99.99,,2013-05-29 13:21:00,
2013-05-29 06:31:00,54.0,53.0,29.66,West,260,2.0,-999.0,95,-99.99,,,-99.99,,2013-05-29 13:31:00,
2013-05-29 06:42:00,54.0,53.0,29.66,West,260,2.0,-999.0,95,-99.99,,,-99.99,,2013-05-29 13:42:00,
2013-05-29 06:53:00,54.0,52.0,29.68,WNW,299,4.0,-999.0,94,-99.99,,,-99.99,,2013-05-29 13:53:00,
2013-05-29 07:01:00,54.0,52.0,29.69,West,270,2.0,-999.0,93,-99.99,,,-99.99,,2013-05-29 14:01:00,
2013-05-29 07:11:00,54.0,52.0,29.69,West,270,2.0,-999.0,93,-99.99,,,-99.99,,2013-05-29 14:11:00,
2013-05-29 07:21:00,53.0,50.0,29.71,NNE,30,4.0,-999.0,90,-99.99,,,-99.99,,2013-05-29 14:21:00,
2013-05-29 07:31:00,53.0,50.0,29.72,WSW,246,4.0,-999.0,90,-99.99,,,-99.99,,2013-05-29 14:31:00,
2013-05-29 07:41:00,53.0,50.0,29.72,WSW,246,4.0,-999.0,90,-99.99,,,-99.99,,2013-05-29 14:41:00,
2013-05-29 07:52:00,53.0,50.0,29.75,SSW,200,2.0,-999.0,91,-99.99,,,-99.99,,2013-05-29 14:52:00,
2013-05-29 08:01:00,53.0,51.0,29.76,SSW,205,2.0,-999.0,92,-99.99,,,-99.99,,2013-05-29 15:01:00,
2013-05-29 08:11:00,53.0,51.0,29.76,SSW,205,2.0,-999.0,92,-99.99,,,-99.99,,2013-05-29 15:11:00,
2013-05-29 08:21:00,54.0,52.0,29.77,South,191,1.0,-999.0,93,-99.99,,,-99.99,,2013-05-29 15:21:00,
2013-05-29 08:32:00,54.0,52.0,29.78,WSW,258,1.0,-999.0,93,-99.99,,,-99.99,,2013-05-29 15:32:00,
2013-05-29 08:42:00,54.0,52.0,29.78,WSW,258,1.0,-999.0,93,-99.99,,,-99.99,,2013-05-29 15:42:00,
2013-05-29 08:53:00,54.0,52.0,29.79,SW,232,1.0,-999.0,93,-99.99,,,-99.99,,2013-05-29 15:53:00,
2013-05-29 09:03:00,54.0,52.0,29.80,SSE,154,2.0,-999.0,93,-99.99,,,-99.99,,2013-05-29 16:03:00,
2013-05-29 09:12:00,54.0,52.0,29.80,SSE,154,2.0,-999.0,93,-99.99,,,-99.99,,2013-05-29 16:12:00,
2013-05-29 09:22:00,54.0,52.0,29.82,SW,224,1.0,-999.0,92,-99.99,,,-99.99,,2013-05-29 16:22:00,
2013-05-29 09:32:00,54.0,51.0,29.82,SSE,156,2.0,-999.0,91,-99.99,,,-99.99,,2013-05-29 16:32:00,
2013-05-29 09:42:00,54.0,51.0,29.82,SSE,156,2.0,-999.0,91,-99.99,,,-99.99,,2013-05-29 16:42:00,
2013-05-29 09:52:00,55.0,52.0,29.83,WSW,240,2.0,-999.0,90,-99.99,,,-99.99,,2013-05-29 16:52:00,
2013-05-29 10:02:00,55.0,52.0,29.83,SW,226,2.0,-999.0,89,-99.99,,,-99.99,,2013-05-29 17:02:00,
2013-05-29 10:11:00,55.0,52.0,29.83,SW,226,2.0,-999.0,89,-99.99,,,-99.99,,2013-05-29 17:11:00,
2013-05-29 10:22:00,57.0,52.0,29.85,SW,220,4.0,-999.0,83,-99.99,,,-99.99,,2013-05-29 17:22:00,
2013-05-29 10:32:00,56.0,51.0,29.85,SW,221,4.0,-999.0,83,-99.99,,,-99.99,,2013-05-29 17:32:00,
2013-05-29 10:42:00,56.0,51.0,29.85,SW,221,4.0,-999.0,83,-99.99,,,-99.99,,2013-05-29 17:42:00,
2013-05-29 10:52:00,57.0,53.0,29.86,SSW,210,1.0,-999.0,86,-99.99,,,-99.99,,2013-05-29 17:52:00,
2013-05-29 11:01:00,56.0,52.0,29.87,SSW,210,2.0,-999.0,86,-99.99,,,-99.99,,2013-05-29 18:01:00,
2013-05-29 11:13:00,56.0,52.0,29.88,West,267,3.0,-999.0,86,-99.99,,,-99.99,,2013-05-29 18:13:00,
2013-05-29 11:21:00,56.0,52.0,29.88,West,267,3.0,-999.0,86,-99.99,,,-99.99,,2013-05-29 18:21:00,
2013-05-29 11:32:00,56.0,52.0,29.89,SSW,194,1.0,-999.0,87,-99.99,,,-99.99,,2013-05-29 18:32:00,
2013-05-29 11:41:00,56.0,52.0,29.89,SSW,194,1.0,-999.0,87,-99.99,,,-99.99,,2013-05-29 18:41:00,
2013-05-29 11:52:00,56.0,53.0,29.89,WNW,298,1.0,-999.0,89,-99.99,,,-99.99,,2013-05-29 18:52:00,
2013-05-29 12:01:00,56.0,52.0,29.90,NNE,30,1.0,-999.0,88,-99.99,,,-99.99,,2013-05-29 19:01:00,
2013-05-29 12:11:00,56.0,52.0,29.91,SW,229,0.0,-999.0,87,-99.99,,,-99.99,,2013-05-29 19:11:00,
2013-05-29 12:21:00,56.0,52.0,29.91,SW,229,0.0,-999.0,87,-99.99,,,-99.99,,2013-05-29 19:21:00,
2013-05-29 12:32:00,56.0,52.0,29.91,NW,310,0.0,-999.0,88,-99.99,,,-99.99,,2013-05-29 19:32:00,
2013-05-29 12:44:00,57.0,54.0,29.91,SSW,200,1.0,-999.0,89,-99.99,,,-99.99,,2013-05-29 19:44:00,
2013-05-29 12:53:00,57.0,54.0,29.91,SSW,200,1.0,-999.0,89,-99.99,,,-99.99,,2013-05-29 19:53:00,
2013-05-29 13:02:00,58.0,54.0,29.91,SE,128,1.0,-999.0,88,-99.99,,,-99.99,,2013-05-29 20:02:00,
2013-05-29 13:11:00,58.0,54.0,29.91,SE,128,1.0,-999.0,88,-99.99,,,-99.99,,2013-05-29 20:11:00,
2013-05-29 13:22:00,58.0,52.0,29.91,West,270,0.0,-999.0,80,-99.99,,,-99.99,,2013-05-29 20:22:00,
2013-05-29 13:32:00,59.0,54.0,29.92,West,271,1.0,-999.0,82,-99.99,,,-99.99,,2013-05-29 20:32:00,
2013-05-29 13:41:00,59.0,54.0,29.92,West,271,1.0,-999.0,82,-99.99,,,-99.99,,2013-05-29 20:41:00,
2013-05-29 13:52:00,60.0,52.0,29.91,WNW,303,1.0,-999.0,76,-99.99,,,-99.99,,2013-05-29 20:52:00,
2013-05-29 14:02:00,60.0,52.0,29.91,South,188,3.0,-999.0,75,-99.99,,,-99.99,,2013-05-29 21:02:00,
2013-05-29 14:12:00,60.0,52.0,29.91,South,188,3.0,-999.0,75,-99.99,,,-99.99,,2013-05-29 21:12:00,
2013-05-29 14:22:00,59.0,54.0,29.92,WNW,288,2.0,-999.0,82,-99.99,,,-99.99,,2013-05-29 21:22:00,
2013-05-29 14:33:00,60.0,53.0,29.92,SSW,205,3.0,-999.0,79,-99.99,,,-99.99,,2013-05-29 21:33:00,
2013-05-29 14:43:00,60.0,53.0,29.92,SSW,205,3.0,-999.0,79,-99.99,,,-99.99,,2013-05-29 21:43:00,
2013-05-29 14:53:00,59.0,53.0,29.93,West,263,0.0,-999.0,81,-99.99,,,-99.99,,2013-05-29 21:53:00,
2013-05-29 15:03:00,60.0,54.0,29.92,WNW,282,2.0,-999.0,82,-99.99,,,-99.99,,2013-05-29 22:03:00,
2013-05-29 15:12:00,60.0,54.0,29.92,WNW,282,2.0,-999.0,82,-99.99,,,-99.99,,2013-05-29 22:12:00,
2013-05-29 15:22:00,61.0,54.0,29.92,WSW,237,2.0,-999.0,77,-99.99,,,-99.99,,2013-05-29 22:22:00,
2013-05-29 15:33:00,61.0,54.0,29.92,South,190,1.0,-999.0,79,-99.99,,,-99.99,,2013-05-29 22:33:00,
2013-05-29 15:42:00,61.0,54.0,29.92,SSE,165,2.0,-999.0,77,-99.99,,,-99.99,,2013-05-29 22:42:00,
2013-05-29 15:53:00,61.0,54.0,29.92,SSE,165,2.0,-999.0,77,-99.99,,,-99.99,,2013-05-29 22:53:00,
2013-05-29 16:02:00,61.0,54.0,29.92,South,177,1.0,-999.0,78,-99.99,,,-99.99,,2013-05-29 23:02:00,
2013-05-29 16:12:00,61.0,54.0,29.92,South,177,1.0,-999.0,78,-99.99,,,-99.99,,2013-05-29 23:12:00,
2013-05-29 16:21:00,61.0,51.0,29.93,West,266,1.0,-999.0,70,-99.99,,,-99.99,,2013-05-29 23:21:00,
2013-05-29 16:33:00,61.0,51.0,29.93,South,169,2.0,-999.0,70,-99.99,,,-99.99,,2013-05-29 23:33:00,
2013-05-29 16:42:00,62.0,50.0,29.92,West,275,2.0,-999.0,65,-99.99,,,-99.99,,2013-05-29 23:42:00,
2013-05-29 16:53:00,62.0,50.0,29.92,West,275,2.0,-999.0,65,-99.99,,,-99.99,,2013-05-29 23:53:00,
2013-05-29 17:01:00,62.0,51.0,29.92,SSE,167,3.0,-999.0,67,-99.99,,,-99.99,,2013-05-30 00:01:00,
2013-05-29 17:11:00,62.0,51.0,29.92,SSE,167,3.0,-999.0,67,-99.99,,,-99.99,,2013-05-30 00:11:00,
2013-05-29 17:21:00,62.0,51.0,29.93,WNW,292,4.0,-999.0,67,-99.99,,,-99.99,,2013-05-30 00:21:00,
2013-05-29 17:31:00,61.0,54.0,29.94,West,273,3.0,-999.0,77,-99.99,,,-99.99,,2013-05-30 00:31:00,
2013-05-29 17:41:00,61.0,54.0,29.94,West,273,3.0,-999.0,77,-99.99,,,-99.99,,2013-05-30 00:41:00,
2013-05-29 17:52:00,60.0,51.0,29.95,NW,317,4.0,-999.0,73,-99.99,,,-99.99,,2013-05-30 00:52:00,
2013-05-29 18:01:00,59.0,51.0,29.95,North,5,5.0,-999.0,76,-99.99,,,-99.99,,2013-05-30 01:01:00,
2013-05-29 18:11:00,59.0,51.0,29.95,North,5,5.0,-999.0,76,-99.99,,,-99.99,,2013-05-30 01:11:00,
2013-05-29 18:21:00,59.0,50.0,29.95,NW,308,4.0,-999.0,73,-99.99,,,-99.99,,2013-05-30 01:21:00,
2013-05-29 18:31:00,58.0,49.0,29.95,WNW,284,3.0,-999.0,73,-99.99,,,-99.99,,2013-05-30 01:31:00,
2013-05-29 18:41:00,58.0,49.0,29.95,WNW,284,3.0,-999.0,73,-99.99,,,-99.99,,2013-05-30 01:41:00,
2013-05-29 18:52:00,57.0,48.0,29.96,SW,230,4.0,-999.0,73,-99.99,,,-99.99,,2013-05-30 01:52:00,
2013-05-29 19:01:00,57.0,49.0,29.96,West,273,4.0,-999.0,74,-99.99,,,-99.99,,2013-05-30 02:01:00,
2013-05-29 19:11:00,57.0,49.0,29.96,West,273,4.0,-999.0,74,-99.99,,,-99.99,,2013-05-30 02:11:00,
2013-05-29 19:21:00,56.0,49.0,29.98,NW,319,2.0,-999.0,76,-99.99,,,-99.99,,2013-05-30 02:21:00,
2013-05-29 19:31:00,55.0,48.0,29.98,NW,318,2.0,-999.0,76,-99.99,,,-99.99,,2013-05-30 02:31:00,
2013-05-29 19:42:00,55.0,48.0,29.98,NW,318,2.0,-999.0,76,-99.99,,,-99.99,,2013-05-30 02:42:00,
2013-05-29 19:52:00,55.0,48.0,29.98,NW,318,2.0,-999.0,76,-99.99,,,-99.99,,2013-05-30 02:52:00,
2013-05-29 20:01:00,54.0,48.0,29.99,West,266,2.0,-999.0,79,-99.99,,,-99.99,,2013-05-30 03:01:00,
2013-05-29 20:11:00,54.0,48.0,29.99,West,263,2.0,-999.0,79,-99.99,,,-99.99,,2013-05-30 03:11:00,
2013-05-29 20:21:00,54.0,48.0,29.99,West,263,2.0,-999.0,79,-99.99,,,-99.99,,2013-05-30 03:21:00,
2013-05-29 20:32:00,54.0,48.0,30.00,SSW,200,1.0,-999.0,80,-99.99,,,-99.99,,2013-05-30 03:32:00,
2013-05-29 20:43:00,54.0,48.0,30.00,SSW,200,1.0,-999.0,80,-99.99,,,-99.99,,2013-05-30 03:43:00,
2013-05-29 20:53:00,53.0,47.0,30.00,SW,228,0.0,-999.0,79,-99.99,,,-99.99,,2013-05-30 03:53:00,
2013-05-29 21:02:00,53.0,47.0,30.01,SW,224,1.0,-999.0,80,-99.99,,,-99.99,,2013-05-30 04:02:00,
2013-05-29 21:12:00,53.0,47.0,30.01,SW,224,1.0,-999.0,80,-99.99,,,-99.99,,2013-05-30 04:12:00,
2013-05-29 21:22:00,52.0,46.0,30.01,SSE,147,0.0,-999.0,81,-99.99,,,-99.99,,2013-05-30 04:22:00,
2013-05-29 21:32:00,52.0,46.0,30.01,NNE,32,0.0,-999.0,81,-99.99,,,-99.99,,2013-05-30 04:32:00,
2013-05-29 21:42:00,52.0,46.0,30.01,NNE,32,0.0,-999.0,81,-99.99,,,-99.99,,2013-05-30 04:42:00,
2013-05-29 21:53:00,52.0,46.0,30.02,SSW,205,0.0,-999.0,80,-99.99,,,-99.99,,2013-05-30 04:53:00,
2013-05-29 22:02:00,51.0,45.0,30.03,SSW,196,0.0,-999.0,81,-99.99,,,-99.99,,2013-05-30 05:02:00,
2013-05-29 22:12:00,51.0,45.0,30.03,SSW,196,0.0,-999.0,81,-99.99,,,-99.99,,2013-05-30 05:12:00,
2013-05-29 22:21:00,51.0,45.0,30.03,West,267,0.0,-999.0,81,-99.99,,,-99.99,,2013-05-30 05:21:00,
2013-05-29 22:32:00,51.0,45.0,30.03,West,267,0.0,-999.0,81,-99.99,,,-99.99,,2013-05-30 05:32:00,
2013-05-29 22:42:00,51.0,45.0,30.03,West,267,0.0,-999.0,81,-99.99,,,-99.99,,2013-05-30 05:42:00,
2013-05-29 22:52:00,50.0,45.0,30.04,West,267,0.0,-999.0,83,-99.99,,,-99.99,,2013-05-30 05:52:00,
2013-05-29 23:01:00,50.0,45.0,30.04,West,267,0.0,-999.0,84,-99.99,,,-99.99,,2013-05-30 06:01:00,
2013-05-29 23:12:00,50.0,45.0,30.04,West,267,0.0,-999.0,84,-99.99,,,-99.99,,2013-05-30 06:12:00,
2013-05-29 23:21:00,50.0,46.0,30.05,South,178,0.0,-999.0,85,-99.99,,,-99.99,,2013-05-30 06:21:00,
2013-05-29 23:32:00,50.0,46.0,30.06,South,178,0.0,-999.0,86,-99.99,,,-99.99,,2013-05-30 06:32:00,
2013-05-29 23:41:00,50.0,46.0,30.06,South,178,0.0,-999.0,86,-99.99,,,-99.99,,2013-05-30 06:41:00,
2013-05-29 23:52:00,50.0,46.0,30.06,South,178,0.0,-999.0,87,-99.99,,,-99.99,,2013-05-30 06:52:00,